DTA655T LPPR-FNLU

Flight info

Callsign DTA655T
Flight time 7h 25m
Altitude 23000
Route PESUL UN726 ABETO/N0484F350 DCT LASIB M744 MGA N493 BERUM DCT ARIAM UM999 MNA UA604 AS/N0493F370 DCT MOLIT UA604 KAN DCT OBUDU DCT DLA DCT ARASI UG861 MOVOD DCT RASOP DCT LIKAD UR526 VNA
Aircraft B77W/H-SDE1E2E3FGHIJ2J3J4J5M1RWXY/LB1D1

Departure

Time 2026-04-22 01:25
Airport Francisco de Sá Carneiro Airport (LPPR)

Arrival

Time 2026-04-22 08:50
Airport Quatro de Fevereiro International Airport (FNLU)
Time Latitude Longitude Altitude Speed Heading
2026-04-21 23:06 41.23403 -8.67211 240 ft 0 kts 39°
2026-04-22 00:40 41.23403 -8.67212 240 ft 0 kts 39°
2026-04-22 01:17 41.23392 -8.67225 240 ft 3 kts 52°
2026-04-22 01:17 41.23382 -8.67247 240 ft 3 kts 71°
2026-04-22 01:17 41.23378 -8.67273 240 ft 3 kts 89°
2026-04-22 01:17 41.23379 -8.67299 240 ft 3 kts 106°
2026-04-22 01:18 41.23387 -8.67322 240 ft 3 kts 123°
2026-04-22 01:18 41.23399 -8.67341 240 ft 3 kts 140°
2026-04-22 01:18 41.23415 -8.67355 240 ft 3 kts 158°
2026-04-22 01:18 41.23427 -8.67361 240 ft 0 kts 171°
2026-04-22 01:21 41.23428 -8.67361 240 ft 2 kts 173°
2026-04-22 01:21 41.23443 -8.67363 240 ft 0 kts 173°
2026-04-22 01:22 41.23407 -8.67358 240 ft 7 kts 174°
2026-04-22 01:22 41.23363 -8.67376 240 ft 7 kts 217°
2026-04-22 01:22 41.23337 -8.67428 240 ft 7 kts 246°
2026-04-22 01:22 41.23325 -8.67488 240 ft 7 kts 258°
2026-04-22 01:23 41.23315 -8.67550 240 ft 7 kts 258°
2026-04-22 01:23 41.23306 -8.67611 240 ft 7 kts 258°
2026-04-22 01:23 41.23297 -8.67673 240 ft 7 kts 261°
2026-04-22 01:23 41.23321 -8.67721 241 ft 7 kts 329°
2026-04-22 01:24 41.23423 -8.67760 241 ft 30 kts 347°
2026-04-22 01:24 41.23833 -8.67866 238 ft 97 kts 349°
2026-04-22 01:24 41.24710 -8.68097 242 ft 161 kts 349°
2026-04-22 01:24 41.25947 -8.68413 490 ft 185 kts 348°
2026-04-22 01:25 41.27183 -8.68740 1259 ft 186 kts 347°
2026-04-22 01:25 41.28489 -8.69096 1799 ft 194 kts 347°
2026-04-22 01:25 41.29874 -8.69460 2148 ft 214 kts 347°
2026-04-22 01:25 41.31419 -8.69871 2372 ft 241 kts 347°
2026-04-22 01:26 41.33151 -8.70336 2717 ft 261 kts 347°
2026-04-22 01:26 41.34976 -8.70828 3355 ft 272 kts 346°
2026-04-22 01:26 41.36852 -8.71335 4068 ft 278 kts 346°
2026-04-22 01:26 41.38779 -8.71782 4769 ft 284 kts 356°
2026-04-22 01:27 41.40738 -8.71257 5374 ft 294 kts 27°
2026-04-22 01:27 41.42320 -8.69617 6134 ft 293 kts 53°
2026-04-22 01:27 41.43305 -8.67234 6806 ft 289 kts 79°
2026-04-22 01:27 41.43706 -8.64634 7333 ft 294 kts 84°
2026-04-22 01:28 41.43894 -8.61931 7924 ft 291 kts 103°
2026-04-22 01:28 41.43230 -8.59460 8609 ft 281 kts 130°
2026-04-22 01:28 41.41932 -8.57568 9335 ft 274 kts 148°
2026-04-22 01:28 41.40361 -8.56126 9988 ft 276 kts 153°
2026-04-22 01:29 41.38703 -8.54714 10378 ft 293 kts 153°
2026-04-22 01:29 41.36907 -8.53208 10561 ft 318 kts 153°
2026-04-22 01:29 41.34964 -8.51572 10727 ft 342 kts 152°
2026-04-22 01:29 41.32898 -8.49815 11113 ft 359 kts 152°
2026-04-22 01:30 41.30769 -8.47987 11761 ft 369 kts 152°
2026-04-22 01:30 41.28586 -8.46105 12585 ft 376 kts 152°
2026-04-22 01:30 41.26377 -8.44198 13462 ft 382 kts 152°
2026-04-22 01:30 41.24137 -8.42263 14280 ft 387 kts 152°
2026-04-22 01:31 41.21893 -8.40327 15126 ft 391 kts 152°
2026-04-22 01:31 41.19596 -8.38347 15940 ft 394 kts 152°
2026-04-22 01:31 41.17281 -8.36355 16765 ft 399 kts 152°
2026-04-22 01:31 41.14935 -8.34338 17559 ft 403 kts 152°
2026-04-22 01:32 41.12562 -8.32302 18348 ft 408 kts 153°
2026-04-22 01:32 41.10165 -8.30249 19011 ft 413 kts 152°
2026-04-22 01:32 41.07733 -8.28169 19668 ft 418 kts 152°
2026-04-22 01:32 41.05277 -8.26070 20340 ft 423 kts 152°
2026-04-22 01:33 41.02784 -8.23940 20987 ft 428 kts 152°
2026-04-22 01:33 41.00260 -8.21785 21648 ft 433 kts 152°
2026-04-22 01:33 40.97747 -8.19639 22263 ft 439 kts 152°
2026-04-22 01:33 40.95166 -8.17435 22892 ft 444 kts 152°
2026-04-22 01:34 40.92560 -8.15214 23503 ft 449 kts 152°
2026-04-22 01:34 40.89920 -8.12979 23987 ft 449 kts 153°
2026-04-22 01:34 40.87097 -8.11268 24368 ft 446 kts 170°
2026-04-22 01:34 40.84062 -8.10761 24792 ft 439 kts 181°
2026-04-22 01:35 40.80981 -8.10495 25197 ft 446 kts 180°
2026-04-22 01:35 40.77868 -8.10152 25690 ft 450 kts 179°
2026-04-22 01:35 40.74729 -8.09761 26207 ft 453 kts 178°
2026-04-22 01:35 40.71580 -8.09348 26693 ft 457 kts 178°
2026-04-22 01:36 40.68399 -8.08925 27150 ft 461 kts 178°
2026-04-22 01:36 40.65185 -8.08497 27589 ft 465 kts 178°
2026-04-22 01:36 40.61961 -8.08072 28006 ft 468 kts 178°
2026-04-22 01:36 40.58706 -8.07645 28416 ft 472 kts 178°
2026-04-22 01:37 40.55427 -8.07217 28801 ft 475 kts 178°
2026-04-22 01:37 40.52131 -8.06788 29177 ft 478 kts 178°
2026-04-22 01:37 40.48807 -8.06356 29531 ft 481 kts 178°
2026-04-22 01:37 40.45463 -8.05920 29866 ft 484 kts 178°
2026-04-22 01:38 40.42154 -8.05297 30201 ft 488 kts 173°
2026-04-22 01:38 40.38848 -8.04232 30636 ft 489 kts 168°
2026-04-22 01:38 40.35581 -8.03021 31127 ft 487 kts 168°
2026-04-22 01:38 40.32321 -8.01810 31586 ft 485 kts 168°
2026-04-22 01:39 40.29075 -8.00613 32004 ft 483 kts 168°
2026-04-22 01:39 40.25832 -7.99430 32378 ft 483 kts 168°
2026-04-22 01:39 40.22590 -7.98258 32762 ft 482 kts 169°
2026-04-22 01:39 40.19363 -7.97098 33160 ft 481 kts 169°
2026-04-22 01:40 40.16165 -7.95953 33547 ft 480 kts 169°
2026-04-22 01:40 40.12941 -7.94802 33935 ft 479 kts 169°
2026-04-22 01:40 40.09732 -7.93656 34223 ft 478 kts 169°
2026-04-22 01:40 40.06532 -7.92515 34487 ft 478 kts 169°
2026-04-22 01:41 40.03323 -7.91371 34785 ft 477 kts 169°
2026-04-22 01:41 40.00115 -7.90228 34864 ft 479 kts 169°
2026-04-22 01:41 39.93687 -7.87941 34916 ft 478 kts 169°
2026-04-22 01:42 39.87274 -7.85664 34922 ft 477 kts 169°
2026-04-22 01:42 39.80869 -7.83396 34926 ft 478 kts 169°
2026-04-22 01:43 39.74443 -7.81122 34922 ft 478 kts 169°
2026-04-22 01:43 39.68069 -7.78870 34924 ft 478 kts 169°
2026-04-22 01:44 39.61652 -7.76609 34928 ft 478 kts 169°
2026-04-22 01:44 39.55218 -7.74345 34930 ft 479 kts 169°
2026-04-22 01:45 39.48780 -7.72086 34935 ft 479 kts 169°
2026-04-22 01:45 39.42341 -7.69831 34935 ft 479 kts 169°
2026-04-22 01:46 39.35933 -7.67590 34932 ft 479 kts 169°
2026-04-22 01:46 39.29490 -7.65340 34933 ft 480 kts 169°
2026-04-22 01:47 39.23037 -7.63092 34938 ft 480 kts 169°
2026-04-22 01:47 39.16572 -7.60844 34934 ft 480 kts 169°
2026-04-22 01:48 39.10112 -7.58602 34940 ft 481 kts 169°
2026-04-22 01:48 39.03647 -7.56363 34937 ft 481 kts 169°
2026-04-22 01:49 38.97186 -7.54129 34939 ft 481 kts 169°
2026-04-22 01:49 38.90750 -7.51908 34937 ft 482 kts 169°
2026-04-22 01:50 38.84273 -7.49677 34943 ft 482 kts 169°
2026-04-22 01:50 38.77778 -7.47444 34945 ft 483 kts 169°
2026-04-22 01:51 38.71284 -7.45216 34939 ft 483 kts 169°
2026-04-22 01:51 38.64775 -7.42987 34940 ft 483 kts 169°
2026-04-22 01:52 38.58268 -7.40762 34945 ft 484 kts 169°
2026-04-22 01:52 38.51757 -7.38540 34940 ft 484 kts 169°
2026-04-22 01:53 38.45247 -7.36323 34943 ft 484 kts 169°
2026-04-22 01:53 38.38777 -7.34123 34949 ft 485 kts 169°
2026-04-22 01:54 38.32254 -7.31909 34942 ft 485 kts 169°
2026-04-22 01:54 38.25718 -7.29695 34946 ft 485 kts 169°
2026-04-22 01:55 38.19181 -7.27485 34946 ft 486 kts 169°
2026-04-22 01:55 38.13742 -7.25648 34953 ft 486 kts 169°
2026-04-22 01:56 38.06497 -7.21721 34956 ft 499 kts 141°
2026-04-22 01:56 38.04234 -7.18432 34956 ft 507 kts 124°
2026-04-22 01:56 38.03089 -7.15780 34957 ft 510 kts 114°
2026-04-22 01:57 38.01942 -7.10021 34954 ft 506 kts 101°
2026-04-22 01:57 38.00969 -7.05737 34946 ft 508 kts 116°
2026-04-22 01:57 37.99224 -7.01864 34959 ft 505 kts 127°
2026-04-22 01:57 37.97884 -6.99375 34966 ft 507 kts 126°
2026-04-22 01:58 37.94177 -6.91802 34949 ft 508 kts 122°
2026-04-22 01:58 37.89991 -6.84760 34956 ft 498 kts 144°
2026-04-22 01:59 37.87143 -6.82272 34962 ft 494 kts 155°
2026-04-22 01:59 37.84025 -6.80525 34952 ft 486 kts 164°
2026-04-22 01:59 37.80946 -6.78743 34949 ft 493 kts 150°
2026-04-22 01:59 37.78288 -6.76022 34968 ft 503 kts 136°
2026-04-22 02:00 37.76095 -6.72545 34960 ft 509 kts 123°
2026-04-22 02:00 37.74424 -6.68627 34964 ft 508 kts 119°
2026-04-22 02:00 37.71087 -6.60741 34954 ft 507 kts 121°
2026-04-22 02:01 37.67652 -6.52973 34954 ft 506 kts 121°
2026-04-22 02:01 37.64198 -6.45220 34954 ft 506 kts 121°
2026-04-22 02:02 37.60755 -6.37474 34960 ft 506 kts 121°
2026-04-22 02:02 37.57304 -6.29732 34952 ft 506 kts 121°
2026-04-22 02:03 37.53868 -6.22053 34957 ft 506 kts 121°
2026-04-22 02:03 37.50412 -6.14342 34960 ft 505 kts 121°
2026-04-22 02:04 37.45214 -6.02776 34964 ft 505 kts 121°
2026-04-22 02:05 37.41749 -5.95086 34960 ft 505 kts 121°
2026-04-22 02:05 37.38279 -5.87402 34968 ft 505 kts 121°
2026-04-22 02:06 37.34806 -5.79729 34974 ft 505 kts 121°
2026-04-22 02:06 37.31347 -5.72036 34962 ft 504 kts 121°
2026-04-22 02:07 37.27921 -5.64405 34964 ft 504 kts 121°
2026-04-22 02:07 37.24461 -5.56724 34968 ft 504 kts 121°
2026-04-22 02:08 37.21003 -5.49069 34965 ft 504 kts 121°
2026-04-22 02:08 37.17557 -5.41463 34964 ft 504 kts 121°
2026-04-22 02:09 37.14088 -5.33820 34959 ft 504 kts 121°
2026-04-22 02:09 37.10618 -5.26194 34965 ft 504 kts 121°
2026-04-22 02:10 37.07136 -5.18560 34948 ft 504 kts 121°
2026-04-22 02:10 37.03651 -5.10934 34959 ft 505 kts 121°
2026-04-22 02:11 37.00158 -5.03306 34945 ft 505 kts 121°
2026-04-22 02:11 36.96710 -4.95700 34953 ft 505 kts 119°
2026-04-22 02:12 36.93457 -4.87915 34938 ft 505 kts 118°
2026-04-22 02:12 36.90236 -4.80118 34946 ft 505 kts 118°
2026-04-22 02:13 36.86971 -4.72341 34944 ft 505 kts 118°
2026-04-22 02:13 36.83690 -4.64592 34934 ft 505 kts 118°
2026-04-22 02:14 36.80400 -4.56832 34933 ft 505 kts 118°
2026-04-22 02:14 36.77104 -4.49084 34943 ft 506 kts 120°
2026-04-22 02:15 36.73122 -4.41867 34944 ft 506 kts 131°
2026-04-22 02:15 36.68207 -4.35613 34947 ft 505 kts 138°
2026-04-22 02:16 36.63036 -4.29656 34929 ft 506 kts 138°
2026-04-22 02:16 36.57911 -4.23725 34937 ft 507 kts 138°
2026-04-22 02:17 36.52760 -4.17717 34938 ft 506 kts 138°
2026-04-22 02:17 36.47623 -4.11715 34936 ft 506 kts 138°
2026-04-22 02:18 36.42487 -4.05727 34940 ft 506 kts 138°
2026-04-22 02:18 36.37378 -3.99785 34933 ft 506 kts 138°
2026-04-22 02:19 36.32232 -3.93814 34935 ft 506 kts 138°
2026-04-22 02:19 36.27085 -3.87852 34945 ft 506 kts 138°
2026-04-22 02:20 36.21940 -3.81905 34946 ft 505 kts 138°
2026-04-22 02:20 36.16798 -3.75970 34956 ft 505 kts 139°
2026-04-22 02:21 36.11661 -3.70054 34957 ft 503 kts 139°
2026-04-22 02:21 36.06567 -3.64198 34961 ft 502 kts 139°
2026-04-22 02:22 36.01446 -3.58321 34955 ft 502 kts 139°
2026-04-22 02:22 35.96337 -3.52469 34961 ft 500 kts 139°
2026-04-22 02:23 35.91229 -3.46629 34960 ft 499 kts 139°
2026-04-22 02:23 35.86133 -3.40812 34960 ft 498 kts 139°
2026-04-22 02:24 35.81049 -3.35020 34958 ft 497 kts 140°
2026-04-22 02:24 35.75815 -3.29570 34957 ft 493 kts 148°
2026-04-22 02:25 35.70131 -3.24773 34958 ft 492 kts 149°
2026-04-22 02:25 35.64476 -3.20045 34951 ft 491 kts 148°
2026-04-22 02:26 35.58889 -3.15333 34953 ft 490 kts 148°
2026-04-22 02:26 35.53282 -3.10584 34957 ft 489 kts 148°
2026-04-22 02:27 35.47676 -3.05836 34960 ft 487 kts 149°
2026-04-22 02:27 35.42134 -3.01154 34964 ft 487 kts 149°
2026-04-22 02:28 35.36559 -2.96453 34964 ft 486 kts 149°
2026-04-22 02:28 35.30984 -2.91762 34967 ft 486 kts 149°
2026-04-22 02:29 35.25402 -2.87072 34965 ft 486 kts 149°
2026-04-22 02:29 35.19823 -2.82393 34962 ft 486 kts 149°
2026-04-22 02:30 35.14235 -2.77713 34956 ft 486 kts 149°
2026-04-22 02:30 35.08652 -2.73046 34967 ft 486 kts 149°
2026-04-22 02:31 35.03075 -2.68392 34951 ft 486 kts 149°
2026-04-22 02:31 34.97524 -2.63767 34940 ft 486 kts 150°
2026-04-22 02:32 34.91948 -2.59130 34954 ft 485 kts 150°
2026-04-22 02:32 34.86375 -2.54501 34938 ft 485 kts 150°
2026-04-22 02:33 34.80799 -2.49877 34963 ft 486 kts 150°
2026-04-22 02:33 34.75194 -2.45242 34942 ft 487 kts 150°
2026-04-22 02:34 34.69607 -2.40625 34953 ft 485 kts 150°
2026-04-22 02:34 34.64022 -2.36018 34948 ft 485 kts 150°
2026-04-22 02:35 34.58418 -2.31403 34952 ft 486 kts 150°
2026-04-22 02:35 34.52860 -2.26834 34955 ft 486 kts 150°
2026-04-22 02:36 34.47252 -2.22232 34965 ft 486 kts 151°
2026-04-22 02:36 34.41647 -2.17638 34962 ft 486 kts 151°
2026-04-22 02:37 34.36048 -2.13058 34973 ft 485 kts 151°
2026-04-22 02:37 34.30440 -2.08479 34967 ft 486 kts 151°
2026-04-22 02:38 34.24868 -2.03935 34981 ft 486 kts 151°
2026-04-22 02:38 34.19251 -1.99362 34980 ft 487 kts 151°
2026-04-22 02:39 34.13628 -1.94792 34980 ft 487 kts 151°
2026-04-22 02:39 34.08007 -1.90230 34986 ft 487 kts 151°
2026-04-22 02:40 34.02381 -1.85673 34991 ft 487 kts 151°
2026-04-22 02:40 33.96742 -1.81111 34996 ft 488 kts 151°
2026-04-22 02:41 33.91105 -1.76557 34987 ft 488 kts 151°
2026-04-22 02:41 33.85492 -1.71938 34997 ft 490 kts 147°
2026-04-22 02:42 33.80461 -1.66331 35002 ft 497 kts 135°
2026-04-22 02:42 33.76085 -1.59947 34999 ft 498 kts 133°
2026-04-22 02:43 33.71711 -1.53472 34996 ft 498 kts 133°
2026-04-22 02:43 33.67324 -1.47047 35005 ft 497 kts 134°
2026-04-22 02:44 33.62917 -1.40650 35004 ft 497 kts 134°
2026-04-22 02:44 33.58500 -1.34264 35013 ft 497 kts 134°
2026-04-22 02:45 33.54078 -1.27880 35001 ft 497 kts 134°
2026-04-22 02:45 33.49689 -1.21551 35013 ft 498 kts 134°
2026-04-22 02:46 33.45261 -1.15175 35013 ft 498 kts 134°
2026-04-22 02:46 33.40819 -1.08790 35006 ft 498 kts 134°
2026-04-22 02:47 33.37134 -1.03503 35012 ft 498 kts 134°
2026-04-22 02:47 33.32690 -0.97136 35014 ft 498 kts 134°
2026-04-22 02:48 33.28247 -0.90782 35013 ft 498 kts 133°
2026-04-22 02:48 33.23800 -0.84433 35019 ft 498 kts 134°
2026-04-22 02:49 33.19348 -0.78088 35024 ft 498 kts 133°
2026-04-22 02:49 33.14898 -0.71757 35021 ft 498 kts 133°
2026-04-22 02:50 33.10445 -0.65434 35022 ft 497 kts 133°
2026-04-22 02:50 33.06018 -0.59157 35023 ft 497 kts 133°
2026-04-22 02:51 33.01565 -0.52855 35020 ft 497 kts 133°
2026-04-22 02:51 32.97108 -0.46557 35016 ft 497 kts 134°
2026-04-22 02:52 32.92644 -0.40260 35011 ft 497 kts 134°
2026-04-22 02:52 32.88185 -0.33983 35007 ft 496 kts 133°
2026-04-22 02:53 32.83729 -0.27719 35006 ft 496 kts 133°
2026-04-22 02:53 32.79267 -0.21458 35008 ft 496 kts 133°
2026-04-22 02:54 32.74807 -0.15209 35003 ft 496 kts 133°
2026-04-22 02:54 32.70347 -0.08972 34997 ft 495 kts 133°
2026-04-22 02:55 32.65886 -0.02744 34996 ft 495 kts 133°
2026-04-22 02:55 32.61423 0.03477 34994 ft 495 kts 133°
2026-04-22 02:56 32.56980 0.09658 34991 ft 495 kts 133°
2026-04-22 02:56 32.52510 0.15868 34992 ft 494 kts 133°
2026-04-22 02:57 32.48046 0.22059 34987 ft 494 kts 133°
2026-04-22 02:57 32.43580 0.28242 34984 ft 494 kts 133°
2026-04-22 02:58 32.39108 0.34423 34982 ft 494 kts 133°
2026-04-22 02:58 32.34638 0.40592 34974 ft 494 kts 133°
2026-04-22 02:59 32.30193 0.46715 34973 ft 494 kts 134°
2026-04-22 02:59 32.25711 0.52880 34972 ft 493 kts 134°
2026-04-22 03:00 32.21234 0.59027 34967 ft 493 kts 134°
2026-04-22 03:00 32.16754 0.65168 34963 ft 493 kts 134°
2026-04-22 03:01 32.12279 0.71292 34959 ft 493 kts 134°
2026-04-22 03:01 32.07800 0.77412 34954 ft 492 kts 134°
2026-04-22 03:02 32.03324 0.83519 34954 ft 492 kts 134°
2026-04-22 03:02 31.98876 0.89577 34946 ft 492 kts 134°
2026-04-22 03:03 31.94397 0.95667 34945 ft 492 kts 134°
2026-04-22 03:03 31.89911 1.01759 34949 ft 493 kts 134°
2026-04-22 03:04 31.85414 1.07856 34938 ft 493 kts 134°
2026-04-22 03:04 31.80758 1.13767 34941 ft 491 kts 141°
2026-04-22 03:05 31.75604 1.19031 34940 ft 490 kts 143°
2026-04-22 03:05 31.70454 1.24244 34937 ft 491 kts 142°
2026-04-22 03:06 31.65306 1.29518 34945 ft 491 kts 142°
2026-04-22 03:06 31.60156 1.34808 34935 ft 491 kts 142°
2026-04-22 03:07 31.55003 1.40091 34936 ft 491 kts 142°
2026-04-22 03:07 31.50089 1.45612 34931 ft 495 kts 134°
2026-04-22 03:08 31.45602 1.51740 34936 ft 496 kts 134°
2026-04-22 03:08 31.41131 1.57890 34928 ft 496 kts 134°
2026-04-22 03:09 31.36633 1.64011 34930 ft 496 kts 134°
2026-04-22 03:09 31.32117 1.70110 34922 ft 496 kts 134°
2026-04-22 03:10 31.27589 1.76210 34928 ft 496 kts 134°
2026-04-22 03:10 31.23060 1.82303 34924 ft 496 kts 134°
2026-04-22 03:11 31.18556 1.88355 34924 ft 497 kts 134°
2026-04-22 03:11 31.14024 1.94437 34927 ft 497 kts 135°
2026-04-22 03:12 31.09482 2.00522 34925 ft 497 kts 135°
2026-04-22 03:12 31.02664 2.09639 34919 ft 497 kts 135°
2026-04-22 03:13 30.98115 2.15708 34917 ft 497 kts 135°
2026-04-22 03:13 30.93593 2.21733 34907 ft 497 kts 135°
2026-04-22 03:14 30.89046 2.27782 34908 ft 496 kts 135°
2026-04-22 03:14 30.84496 2.33825 34921 ft 495 kts 135°
2026-04-22 03:15 30.79951 2.39853 34905 ft 495 kts 135°
2026-04-22 03:15 30.75400 2.45878 34895 ft 495 kts 135°
2026-04-22 03:16 30.70856 2.51885 34897 ft 495 kts 135°
2026-04-22 03:16 30.66308 2.57889 34925 ft 495 kts 135°
2026-04-22 03:17 30.61762 2.63882 34936 ft 495 kts 135°
2026-04-22 03:17 30.57210 2.69873 34953 ft 495 kts 135°
2026-04-22 03:18 30.52440 2.75528 35261 ft 490 kts 147°
2026-04-22 03:18 30.49599 2.77650 35595 ft 483 kts 156°
2026-04-22 03:18 30.46571 2.79273 35924 ft 476 kts 165°
2026-04-22 03:19 30.43417 2.80361 36173 ft 472 kts 169°
2026-04-22 03:19 30.40248 2.81344 36394 ft 472 kts 169°
2026-04-22 03:19 30.37053 2.82320 36648 ft 472 kts 169°
2026-04-22 03:19 30.33879 2.83297 36841 ft 473 kts 169°
2026-04-22 03:20 30.27520 2.85297 36903 ft 473 kts 169°
2026-04-22 03:20 30.21166 2.87332 36881 ft 474 kts 169°
2026-04-22 03:21 30.14813 2.89376 36877 ft 474 kts 169°
2026-04-22 03:21 30.08506 2.91401 36873 ft 474 kts 169°
2026-04-22 03:22 30.02141 2.93440 36875 ft 474 kts 169°
2026-04-22 03:22 29.95779 2.95474 36878 ft 474 kts 169°
2026-04-22 03:23 29.89402 2.97511 36874 ft 474 kts 169°
2026-04-22 03:23 29.83038 2.99540 36873 ft 475 kts 169°
2026-04-22 03:24 29.76669 3.01569 36866 ft 475 kts 169°
2026-04-22 03:24 29.70341 3.03582 36871 ft 475 kts 169°
2026-04-22 03:25 29.63958 3.05609 36867 ft 476 kts 169°
2026-04-22 03:25 29.57574 3.07635 36863 ft 476 kts 169°
2026-04-22 03:26 29.51178 3.09661 36865 ft 476 kts 169°
2026-04-22 03:26 29.44828 3.11670 36862 ft 477 kts 169°
2026-04-22 03:27 29.38428 3.13692 36862 ft 477 kts 169°
2026-04-22 03:27 29.32033 3.15711 36862 ft 477 kts 169°
2026-04-22 03:28 29.25633 3.17728 36859 ft 477 kts 169°
2026-04-22 03:28 29.19213 3.19748 36859 ft 478 kts 169°
2026-04-22 03:29 29.12791 3.21767 36857 ft 478 kts 169°
2026-04-22 03:29 29.06372 3.23782 36861 ft 479 kts 169°
2026-04-22 03:30 28.99936 3.25800 36859 ft 479 kts 169°
2026-04-22 03:30 28.93500 3.27816 36852 ft 479 kts 169°
2026-04-22 03:31 28.87066 3.29828 36854 ft 480 kts 170°
2026-04-22 03:31 28.80624 3.31840 36849 ft 480 kts 170°
2026-04-22 03:32 28.74218 3.33838 36851 ft 480 kts 170°
2026-04-22 03:32 28.67775 3.35846 36849 ft 480 kts 170°
2026-04-22 03:33 28.61319 3.37855 36846 ft 480 kts 170°
2026-04-22 03:33 28.54859 3.39863 36851 ft 480 kts 170°
2026-04-22 03:34 28.48400 3.41868 36843 ft 481 kts 170°
2026-04-22 03:34 28.42009 3.44007 36854 ft 483 kts 168°
2026-04-22 03:35 28.35608 3.46348 36844 ft 483 kts 167°
2026-04-22 03:35 28.29202 3.48689 36839 ft 484 kts 167°
2026-04-22 03:36 28.23866 3.50612 36839 ft 484 kts 168°
2026-04-22 03:36 28.16350 3.53296 36839 ft 484 kts 168°
2026-04-22 03:37 28.11005 3.55199 36832 ft 484 kts 168°
2026-04-22 03:37 28.04575 3.57486 36835 ft 485 kts 168°
2026-04-22 03:38 27.98133 3.59776 36819 ft 485 kts 168°
2026-04-22 03:38 27.91683 3.62066 36820 ft 485 kts 168°
2026-04-22 03:39 27.85291 3.64333 36818 ft 485 kts 168°
2026-04-22 03:39 27.78849 3.66615 36832 ft 486 kts 168°
2026-04-22 03:40 27.72375 3.68905 36820 ft 486 kts 168°
2026-04-22 03:40 27.65913 3.71188 36828 ft 486 kts 168°
2026-04-22 03:41 27.59488 3.73455 36814 ft 487 kts 168°
2026-04-22 03:41 27.53016 3.75736 36825 ft 487 kts 168°
2026-04-22 03:42 27.46539 3.78016 36817 ft 488 kts 168°
2026-04-22 03:42 27.40057 3.80295 36816 ft 488 kts 168°
2026-04-22 03:43 27.33600 3.82563 36822 ft 488 kts 169°
2026-04-22 03:43 27.27113 3.84838 36823 ft 488 kts 169°
2026-04-22 03:44 27.20612 3.87115 36824 ft 489 kts 169°
2026-04-22 03:44 27.14112 3.89389 36819 ft 488 kts 169°
2026-04-22 03:45 27.07617 3.91659 36818 ft 489 kts 169°
2026-04-22 03:45 27.01122 3.93926 36817 ft 489 kts 169°
2026-04-22 03:46 26.94666 3.96176 36816 ft 489 kts 169°
2026-04-22 03:46 26.88171 3.98438 36819 ft 488 kts 169°
2026-04-22 03:47 26.81678 4.00696 36817 ft 488 kts 169°
2026-04-22 03:47 26.75186 4.02950 36817 ft 488 kts 169°
2026-04-22 03:48 26.68696 4.05202 36820 ft 488 kts 169°
2026-04-22 03:48 26.62203 4.07452 36818 ft 488 kts 169°
2026-04-22 03:49 26.55709 4.09699 36824 ft 488 kts 169°
2026-04-22 03:49 26.49234 4.11937 36823 ft 489 kts 169°
2026-04-22 03:50 26.42741 4.14179 36825 ft 489 kts 169°
2026-04-22 03:50 26.36238 4.16422 36825 ft 489 kts 169°
2026-04-22 03:51 26.29737 4.18661 36841 ft 489 kts 169°
2026-04-22 03:51 26.23238 4.20897 36844 ft 489 kts 169°
2026-04-22 03:52 26.16718 4.23137 36839 ft 490 kts 169°
2026-04-22 03:52 26.10203 4.25373 36844 ft 490 kts 169°
2026-04-22 03:53 26.03719 4.27597 36852 ft 490 kts 169°
2026-04-22 03:53 25.97192 4.29832 36858 ft 490 kts 169°
2026-04-22 03:54 25.90668 4.32063 36850 ft 490 kts 169°
2026-04-22 03:54 25.84148 4.34291 36872 ft 492 kts 169°
2026-04-22 03:55 25.77595 4.36525 36886 ft 492 kts 169°
2026-04-22 03:55 25.71052 4.38757 36895 ft 491 kts 169°
2026-04-22 03:56 25.64566 4.40967 36897 ft 491 kts 169°
2026-04-22 03:56 25.58029 4.43190 36909 ft 491 kts 169°
2026-04-22 03:57 25.51491 4.45410 36917 ft 491 kts 169°
2026-04-22 03:57 25.44949 4.47630 36913 ft 491 kts 169°
2026-04-22 03:58 25.38422 4.49847 36928 ft 491 kts 170°
2026-04-22 03:58 25.31876 4.52056 36905 ft 491 kts 170°
2026-04-22 03:59 25.25376 4.54254 36901 ft 491 kts 170°
2026-04-22 03:59 25.18843 4.56462 36902 ft 491 kts 170°
2026-04-22 04:00 25.12302 4.58669 36901 ft 492 kts 170°
2026-04-22 04:00 25.05755 4.60876 36892 ft 491 kts 170°
2026-04-22 04:01 24.99211 4.63080 36886 ft 491 kts 170°
2026-04-22 04:01 24.92671 4.65279 36889 ft 491 kts 170°
2026-04-22 04:02 24.86128 4.67476 36888 ft 492 kts 170°
2026-04-22 04:02 24.79579 4.69674 36888 ft 491 kts 171°
2026-04-22 04:03 24.73074 4.71854 36888 ft 492 kts 171°
2026-04-22 04:03 24.66528 4.74046 36892 ft 491 kts 171°
2026-04-22 04:04 24.59987 4.76234 36888 ft 491 kts 171°
2026-04-22 04:04 24.53435 4.78420 36891 ft 492 kts 171°
2026-04-22 04:05 24.46882 4.80607 36905 ft 492 kts 171°
2026-04-22 04:05 24.40382 4.82775 36896 ft 491 kts 171°
2026-04-22 04:06 24.33843 4.84953 36917 ft 491 kts 171°
2026-04-22 04:06 24.27296 4.87130 36899 ft 491 kts 171°
2026-04-22 04:07 24.20766 4.89299 36908 ft 491 kts 171°
2026-04-22 04:07 24.14223 4.91471 36910 ft 491 kts 171°
2026-04-22 04:08 24.07678 4.93641 36910 ft 491 kts 171°
2026-04-22 04:08 24.01146 4.95805 36905 ft 490 kts 171°
2026-04-22 04:09 23.94618 4.97965 36911 ft 490 kts 172°
2026-04-22 04:09 23.88090 5.00122 36911 ft 490 kts 172°
2026-04-22 04:10 23.81617 5.02259 36914 ft 489 kts 172°
2026-04-22 04:10 23.75087 5.04412 36914 ft 490 kts 172°
2026-04-22 04:11 23.68562 5.06561 36916 ft 489 kts 172°
2026-04-22 04:11 23.62044 5.08706 36907 ft 489 kts 172°
2026-04-22 04:12 23.55520 5.10851 36914 ft 489 kts 172°
2026-04-22 04:12 23.48996 5.12994 36919 ft 490 kts 172°
2026-04-22 04:13 23.42466 5.15137 36921 ft 490 kts 172°
2026-04-22 04:13 23.35937 5.17277 36929 ft 489 kts 172°
2026-04-22 04:14 23.29452 5.19400 36920 ft 489 kts 172°
2026-04-22 04:14 23.22928 5.21536 36928 ft 489 kts 173°
2026-04-22 04:15 23.16402 5.23665 36928 ft 490 kts 173°
2026-04-22 04:15 23.09877 5.25795 36956 ft 489 kts 173°
2026-04-22 04:16 23.00091 5.28986 37030 ft 489 kts 173°
2026-04-22 04:17 22.93575 5.31109 37066 ft 489 kts 173°
2026-04-22 04:17 22.87097 5.33216 37103 ft 489 kts 173°
2026-04-22 04:18 22.80584 5.35333 37132 ft 489 kts 173°
2026-04-22 04:18 22.74112 5.37784 37125 ft 496 kts 168°
2026-04-22 04:19 22.67701 5.40616 37093 ft 497 kts 167°
2026-04-22 04:19 22.61286 5.43467 37055 ft 497 kts 168°
2026-04-22 04:20 22.54918 5.46265 37015 ft 497 kts 168°
2026-04-22 04:20 22.48497 5.49066 36965 ft 497 kts 168°
2026-04-22 04:21 22.42077 5.51860 36939 ft 497 kts 168°
2026-04-22 04:21 22.35667 5.54648 36931 ft 497 kts 168°
2026-04-22 04:22 22.29239 5.57442 36938 ft 498 kts 168°
2026-04-22 04:22 22.22802 5.60236 36932 ft 499 kts 168°
2026-04-22 04:23 22.16359 5.63032 36930 ft 499 kts 168°
2026-04-22 04:23 22.11005 5.65354 36927 ft 499 kts 168°
2026-04-22 04:24 22.03503 5.68602 36927 ft 500 kts 168°
2026-04-22 04:24 21.98093 5.70943 36923 ft 500 kts 168°
2026-04-22 04:25 21.91637 5.73734 36925 ft 500 kts 168°
2026-04-22 04:25 21.85172 5.76525 36921 ft 500 kts 168°
2026-04-22 04:26 21.78707 5.79314 36915 ft 501 kts 168°
2026-04-22 04:26 21.72281 5.82084 36915 ft 501 kts 169°
2026-04-22 04:27 21.65783 5.84879 36922 ft 506 kts 170°
2026-04-22 04:27 21.59190 5.87706 36904 ft 513 kts 169°
2026-04-22 04:28 21.52551 5.90561 36913 ft 515 kts 169°
2026-04-22 04:28 21.45902 5.93424 36900 ft 513 kts 169°
2026-04-22 04:29 21.39271 5.96271 36911 ft 513 kts 169°
2026-04-22 04:29 21.32630 5.99115 36902 ft 514 kts 170°
2026-04-22 04:30 21.26020 6.01943 36902 ft 514 kts 170°
2026-04-22 04:30 21.19366 6.04788 36895 ft 515 kts 170°
2026-04-22 04:31 21.12697 6.07638 36892 ft 515 kts 170°
2026-04-22 04:31 21.06030 6.10483 36897 ft 516 kts 170°
2026-04-22 04:32 20.99361 6.13327 36901 ft 516 kts 170°
2026-04-22 04:32 20.92678 6.16174 36899 ft 516 kts 170°
2026-04-22 04:33 20.85997 6.19017 36890 ft 517 kts 170°
2026-04-22 04:33 20.79357 6.21840 36883 ft 517 kts 170°
2026-04-22 04:34 20.72668 6.24682 36891 ft 517 kts 170°
2026-04-22 04:34 20.65979 6.27521 36877 ft 517 kts 170°
2026-04-22 04:35 20.59293 6.30355 36878 ft 517 kts 170°
2026-04-22 04:35 20.52603 6.33188 36887 ft 517 kts 169°
2026-04-22 04:36 20.45913 6.36019 36882 ft 517 kts 169°
2026-04-22 04:36 20.39271 6.38827 36877 ft 516 kts 169°
2026-04-22 04:37 20.32592 6.41649 36880 ft 516 kts 169°
2026-04-22 04:37 20.25913 6.44467 36885 ft 516 kts 169°
2026-04-22 04:38 20.19235 6.47283 36878 ft 516 kts 169°
2026-04-22 04:38 20.12561 6.50094 36881 ft 516 kts 169°
2026-04-22 04:39 20.05901 6.52930 36884 ft 517 kts 168°
2026-04-22 04:39 19.99274 6.55983 36885 ft 520 kts 167°
2026-04-22 04:40 19.92660 6.59095 36885 ft 520 kts 167°
2026-04-22 04:40 19.86039 6.62178 36887 ft 519 kts 167°
2026-04-22 04:41 19.79408 6.65236 36883 ft 519 kts 167°
2026-04-22 04:41 19.72830 6.68261 36885 ft 519 kts 167°
2026-04-22 04:42 19.66166 6.71324 36883 ft 520 kts 167°
2026-04-22 04:42 19.59528 6.74375 36883 ft 520 kts 167°
2026-04-22 04:43 19.52880 6.77428 36888 ft 520 kts 167°
2026-04-22 04:43 19.46269 6.80461 36880 ft 521 kts 167°
2026-04-22 04:44 19.39618 6.83510 36898 ft 521 kts 167°
2026-04-22 04:44 19.32941 6.86568 36884 ft 521 kts 167°
2026-04-22 04:45 19.26270 6.89621 36888 ft 522 kts 167°
2026-04-22 04:45 19.19639 6.92652 36884 ft 522 kts 167°
2026-04-22 04:46 19.12962 6.95703 36879 ft 523 kts 167°
2026-04-22 04:46 19.06273 6.98756 36879 ft 523 kts 167°
2026-04-22 04:47 18.99588 7.01805 36881 ft 523 kts 167°
2026-04-22 04:47 18.92897 7.04855 36880 ft 523 kts 167°
2026-04-22 04:48 18.86210 7.07899 36881 ft 523 kts 167°
2026-04-22 04:48 18.79524 7.10940 36881 ft 523 kts 167°
2026-04-22 04:49 18.72842 7.13979 36880 ft 522 kts 167°
2026-04-22 04:49 18.66163 7.17014 36884 ft 522 kts 167°
2026-04-22 04:50 18.59540 7.20021 36875 ft 522 kts 167°
2026-04-22 04:50 18.52859 7.23053 36876 ft 522 kts 167°
2026-04-22 04:51 18.46198 7.26072 36876 ft 521 kts 167°
2026-04-22 04:51 18.39533 7.29091 36880 ft 521 kts 167°
2026-04-22 04:52 18.32873 7.32104 36878 ft 520 kts 167°
2026-04-22 04:52 18.26250 7.35099 36877 ft 520 kts 167°
2026-04-22 04:53 18.19607 7.38100 36882 ft 520 kts 167°
2026-04-22 04:53 18.12951 7.41104 36885 ft 520 kts 166°
2026-04-22 04:54 18.06293 7.44106 36881 ft 520 kts 166°
2026-04-22 04:54 17.99632 7.47107 36885 ft 521 kts 166°
2026-04-22 04:55 17.93014 7.50087 36882 ft 521 kts 166°
2026-04-22 04:55 17.86349 7.53086 36883 ft 521 kts 166°
2026-04-22 04:56 17.79682 7.56083 36884 ft 521 kts 166°
2026-04-22 04:56 17.73025 7.59073 36885 ft 520 kts 166°
2026-04-22 04:57 17.66369 7.62061 36883 ft 520 kts 166°
2026-04-22 04:57 17.59760 7.65024 36884 ft 519 kts 166°
2026-04-22 04:58 17.53127 7.67997 36883 ft 518 kts 166°
2026-04-22 04:58 17.46502 7.70963 36875 ft 518 kts 166°
2026-04-22 04:59 17.39881 7.73925 36877 ft 517 kts 166°
2026-04-22 04:59 17.33255 7.76887 36877 ft 517 kts 166°
2026-04-22 05:00 17.26637 7.79843 36884 ft 517 kts 166°
2026-04-22 05:00 17.20033 7.82791 36879 ft 516 kts 165°
2026-04-22 05:01 17.13420 7.85740 36881 ft 516 kts 165°
2026-04-22 05:01 17.06817 7.88683 36876 ft 516 kts 165°
2026-04-22 05:02 17.00204 7.91624 36875 ft 515 kts 166°
2026-04-22 05:02 16.93500 7.93761 36884 ft 501 kts 177°
2026-04-22 05:03 16.86625 7.94706 36882 ft 492 kts 184°
2026-04-22 05:03 16.79834 7.95308 36879 ft 493 kts 184°
2026-04-22 05:04 16.72990 7.95931 36880 ft 494 kts 184°
2026-04-22 05:04 16.66133 7.96585 36882 ft 494 kts 183°
2026-04-22 05:05 16.59276 7.97251 36874 ft 494 kts 183°
2026-04-22 05:05 16.52465 7.97913 36881 ft 494 kts 183°
2026-04-22 05:06 16.45619 7.98577 36886 ft 494 kts 183°
2026-04-22 05:06 16.38765 7.99239 36879 ft 494 kts 183°
2026-04-22 05:07 16.31915 7.99901 36882 ft 494 kts 183°
2026-04-22 05:07 16.25062 8.00562 36878 ft 495 kts 183°
2026-04-22 05:08 16.18205 8.01223 36883 ft 495 kts 183°
2026-04-22 05:08 16.11377 8.01882 36886 ft 495 kts 183°
2026-04-22 05:09 16.04525 8.02542 36882 ft 495 kts 183°
2026-04-22 05:09 15.97667 8.03202 36886 ft 495 kts 183°
2026-04-22 05:10 15.90802 8.03863 36884 ft 495 kts 183°
2026-04-22 05:10 15.83940 8.04522 36884 ft 495 kts 182°
2026-04-22 05:11 15.77107 8.05178 36885 ft 496 kts 182°
2026-04-22 05:11 15.70236 8.05838 36884 ft 496 kts 182°
2026-04-22 05:12 15.63341 8.06499 36881 ft 497 kts 182°
2026-04-22 05:12 15.56455 8.07160 36874 ft 497 kts 182°
2026-04-22 05:13 15.49607 8.07816 36876 ft 497 kts 182°
2026-04-22 05:13 15.42708 8.08476 36878 ft 497 kts 182°
2026-04-22 05:14 15.36929 8.09029 36877 ft 498 kts 182°
2026-04-22 05:14 15.30026 8.09689 36872 ft 499 kts 182°
2026-04-22 05:15 15.23117 8.10349 36872 ft 499 kts 182°
2026-04-22 05:15 15.16204 8.11010 36872 ft 499 kts 182°
2026-04-22 05:16 15.09293 8.11669 36876 ft 499 kts 182°
2026-04-22 05:16 15.02416 8.12325 36862 ft 499 kts 182°
2026-04-22 05:17 14.95494 8.12985 36869 ft 499 kts 182°
2026-04-22 05:17 14.88563 8.13645 36873 ft 500 kts 182°
2026-04-22 05:18 14.78165 8.14635 36877 ft 500 kts 182°
2026-04-22 05:18 14.71232 8.15294 36861 ft 499 kts 182°
2026-04-22 05:19 14.64316 8.15952 36880 ft 499 kts 181°
2026-04-22 05:19 14.57394 8.16609 36866 ft 499 kts 181°
2026-04-22 05:20 14.50530 8.17261 36862 ft 498 kts 181°
2026-04-22 05:20 14.43623 8.17916 36863 ft 498 kts 181°
2026-04-22 05:21 14.36711 8.18571 36874 ft 498 kts 181°
2026-04-22 05:21 14.29784 8.19227 36866 ft 499 kts 181°
2026-04-22 05:22 14.22909 8.19878 36867 ft 499 kts 181°
2026-04-22 05:22 14.15996 8.20532 36867 ft 499 kts 181°
2026-04-22 05:23 14.09072 8.21187 36862 ft 499 kts 181°
2026-04-22 05:23 14.02143 8.21841 36871 ft 500 kts 181°
2026-04-22 05:24 13.95211 8.22497 36864 ft 499 kts 181°
2026-04-22 05:24 13.88289 8.23150 36862 ft 500 kts 181°
2026-04-22 05:25 13.81365 8.23803 36863 ft 500 kts 180°
2026-04-22 05:25 13.74477 8.24453 36858 ft 499 kts 180°
2026-04-22 05:26 13.67560 8.25107 36858 ft 500 kts 180°
2026-04-22 05:26 13.60621 8.25764 36856 ft 500 kts 180°
2026-04-22 05:27 13.53699 8.26420 36862 ft 500 kts 180°
2026-04-22 05:27 13.46769 8.27075 36859 ft 499 kts 180°
2026-04-22 05:28 13.39890 8.27726 36861 ft 500 kts 180°
2026-04-22 05:28 13.32967 8.28380 36871 ft 500 kts 180°
2026-04-22 05:29 13.26033 8.29035 36855 ft 500 kts 180°
2026-04-22 05:29 13.19105 8.29689 36858 ft 500 kts 180°
2026-04-22 05:30 13.12189 8.30342 36861 ft 500 kts 180°
2026-04-22 05:30 13.05238 8.31001 36863 ft 500 kts 180°
2026-04-22 05:31 12.98334 8.31690 36862 ft 501 kts 179°
2026-04-22 05:31 12.91389 8.32390 36862 ft 501 kts 179°
2026-04-22 05:32 12.84451 8.33082 36864 ft 501 kts 179°
2026-04-22 05:32 12.77491 8.33775 36865 ft 501 kts 179°
2026-04-22 05:33 12.70588 8.34458 36860 ft 501 kts 179°
2026-04-22 05:33 12.63637 8.35141 36866 ft 501 kts 179°
2026-04-22 05:34 12.56674 8.35825 36869 ft 502 kts 179°
2026-04-22 05:34 12.49722 8.36509 36862 ft 502 kts 179°
2026-04-22 05:35 12.42819 8.37189 36864 ft 502 kts 179°
2026-04-22 05:35 12.35861 8.37873 36865 ft 502 kts 179°
2026-04-22 05:36 12.28904 8.38556 36862 ft 502 kts 179°
2026-04-22 05:36 12.21949 8.39240 36867 ft 501 kts 179°
2026-04-22 05:37 12.14999 8.39922 36866 ft 501 kts 179°
2026-04-22 05:37 12.08051 8.40603 36866 ft 501 kts 179°
2026-04-22 05:38 12.01148 8.41291 36868 ft 502 kts 178°
2026-04-22 05:38 11.94204 8.42165 36870 ft 502 kts 176°
2026-04-22 05:39 11.87283 8.43116 36869 ft 502 kts 176°
2026-04-22 05:39 11.80357 8.44052 36870 ft 501 kts 176°
2026-04-22 05:40 11.73440 8.44964 36868 ft 501 kts 176°
2026-04-22 05:40 11.66513 8.45869 36872 ft 501 kts 176°
2026-04-22 05:41 11.59592 8.46771 36871 ft 501 kts 176°
2026-04-22 05:41 11.52673 8.47675 36875 ft 501 kts 176°
2026-04-22 05:42 11.45759 8.48578 36878 ft 501 kts 176°
2026-04-22 05:42 11.38879 8.49477 36877 ft 501 kts 176°
2026-04-22 05:43 11.31969 8.50379 36882 ft 500 kts 176°
2026-04-22 05:43 11.25061 8.51280 36888 ft 500 kts 176°
2026-04-22 05:44 11.18154 8.52180 36888 ft 500 kts 176°
2026-04-22 05:44 11.11248 8.53080 36890 ft 500 kts 176°
2026-04-22 05:45 11.04347 8.53979 36900 ft 500 kts 176°
2026-04-22 05:45 10.97441 8.54878 36903 ft 500 kts 176°
2026-04-22 05:46 10.90576 8.55771 36903 ft 500 kts 176°
2026-04-22 05:46 10.83667 8.56670 36905 ft 500 kts 176°
2026-04-22 05:47 10.76767 8.57568 36910 ft 500 kts 176°
2026-04-22 05:47 10.69856 8.58466 36907 ft 500 kts 176°
2026-04-22 05:48 10.62960 8.59361 36919 ft 500 kts 176°
2026-04-22 05:48 10.56043 8.60259 36905 ft 500 kts 176°
2026-04-22 05:49 10.49171 8.61151 36918 ft 500 kts 176°
2026-04-22 05:49 10.42264 8.62047 36908 ft 501 kts 176°
2026-04-22 05:50 10.35343 8.62944 36916 ft 501 kts 176°
2026-04-22 05:50 10.28417 8.63842 36916 ft 501 kts 176°
2026-04-22 05:51 10.21505 8.64737 36910 ft 500 kts 176°
2026-04-22 05:51 10.14636 8.65627 36922 ft 501 kts 175°
2026-04-22 05:52 10.07711 8.66523 36922 ft 501 kts 175°
2026-04-22 05:52 10.00783 8.67420 36928 ft 501 kts 175°
2026-04-22 05:53 9.93871 8.68314 36922 ft 501 kts 175°
2026-04-22 05:53 9.87003 8.69202 36932 ft 500 kts 175°
2026-04-22 05:54 9.80096 8.70094 36927 ft 500 kts 175°
2026-04-22 05:54 9.73189 8.70986 36937 ft 500 kts 175°
2026-04-22 05:55 9.66279 8.71878 36929 ft 500 kts 175°
2026-04-22 05:55 9.59374 8.72769 36930 ft 500 kts 175°
2026-04-22 05:56 9.52465 8.73661 36932 ft 499 kts 175°
2026-04-22 05:56 9.45625 8.74542 36931 ft 498 kts 175°
2026-04-22 05:57 9.38734 8.75431 36921 ft 497 kts 175°
2026-04-22 05:57 9.31867 8.76315 36915 ft 496 kts 174°
2026-04-22 05:58 9.25024 8.77197 36915 ft 496 kts 174°
2026-04-22 05:58 9.18231 8.78071 36907 ft 494 kts 174°
2026-04-22 05:59 9.11401 8.78950 36895 ft 494 kts 174°
2026-04-22 05:59 9.04590 8.79826 36889 ft 493 kts 174°
2026-04-22 06:00 8.97776 8.80703 36881 ft 493 kts 174°
2026-04-22 06:00 8.90971 8.81578 36872 ft 492 kts 174°
2026-04-22 06:01 8.84171 8.82451 36862 ft 492 kts 174°
2026-04-22 06:01 8.77378 8.83324 36855 ft 491 kts 174°
2026-04-22 06:02 8.70630 8.84190 36849 ft 491 kts 174°
2026-04-22 06:02 8.63853 8.85060 36852 ft 490 kts 174°
2026-04-22 06:03 8.57076 8.85929 36850 ft 490 kts 174°
2026-04-22 06:03 8.51448 8.86651 36852 ft 490 kts 174°
2026-04-22 06:04 8.44681 8.87519 36853 ft 490 kts 174°
2026-04-22 06:04 8.37923 8.88385 36850 ft 490 kts 174°
2026-04-22 06:05 8.31163 8.89251 36850 ft 489 kts 174°
2026-04-22 06:05 8.23312 8.90257 36857 ft 489 kts 174°
2026-04-22 06:06 8.17660 8.90980 36852 ft 489 kts 174°
2026-04-22 06:06 8.10947 8.91840 36853 ft 489 kts 174°
2026-04-22 06:07 8.04202 8.92703 36852 ft 488 kts 174°
2026-04-22 06:07 7.97459 8.93565 36850 ft 488 kts 174°
2026-04-22 06:08 7.90718 8.94428 36856 ft 488 kts 174°
2026-04-22 06:08 7.83978 8.95289 36851 ft 488 kts 174°
2026-04-22 06:09 7.77249 8.96149 36853 ft 487 kts 174°
2026-04-22 06:09 7.70525 8.97008 36849 ft 486 kts 174°
2026-04-22 06:10 7.63859 8.97860 36851 ft 485 kts 174°
2026-04-22 06:10 7.57160 8.98715 36853 ft 485 kts 174°
2026-04-22 06:11 7.50461 8.99569 36855 ft 486 kts 174°
2026-04-22 06:11 7.43747 9.00426 36850 ft 486 kts 174°
2026-04-22 06:12 7.37036 9.01283 36853 ft 486 kts 173°
2026-04-22 06:12 7.30326 9.02138 36853 ft 485 kts 174°
2026-04-22 06:13 7.23664 9.02987 36855 ft 485 kts 173°
2026-04-22 06:13 7.16973 9.03840 36854 ft 484 kts 173°
2026-04-22 06:14 7.10278 9.04693 36853 ft 484 kts 173°
2026-04-22 06:14 7.03594 9.05543 36859 ft 484 kts 173°
2026-04-22 06:15 6.96911 9.06394 36861 ft 484 kts 173°
2026-04-22 06:15 6.90250 9.07242 36860 ft 485 kts 173°
2026-04-22 06:16 6.83544 9.08096 36860 ft 485 kts 173°
2026-04-22 06:16 6.76838 9.08948 36861 ft 486 kts 173°
2026-04-22 06:17 6.70128 9.09802 36858 ft 485 kts 173°
2026-04-22 06:17 6.63421 9.10655 36866 ft 485 kts 173°
2026-04-22 06:18 6.56726 9.11506 36866 ft 485 kts 173°
2026-04-22 06:18 6.50016 9.12359 36876 ft 486 kts 173°
2026-04-22 06:19 6.43353 9.13205 36873 ft 486 kts 173°
2026-04-22 06:19 6.36645 9.14057 36875 ft 485 kts 173°
2026-04-22 06:20 6.29945 9.14908 36875 ft 485 kts 173°
2026-04-22 06:20 6.23233 9.15760 36874 ft 485 kts 173°
2026-04-22 06:21 6.16524 9.16615 36876 ft 485 kts 172°
2026-04-22 06:21 6.09902 9.17937 36883 ft 485 kts 167°
2026-04-22 06:22 6.03327 9.19472 36875 ft 486 kts 167°
2026-04-22 06:22 5.96741 9.21005 36866 ft 485 kts 167°
2026-04-22 06:23 5.90157 9.22513 36870 ft 485 kts 167°
2026-04-22 06:23 5.83570 9.24009 36868 ft 485 kts 167°
2026-04-22 06:24 5.73729 9.26242 36871 ft 485 kts 167°
2026-04-22 06:25 5.67141 9.27738 36872 ft 485 kts 167°
2026-04-22 06:25 5.60551 9.29235 36872 ft 485 kts 167°
2026-04-22 06:26 5.53970 9.30729 36872 ft 485 kts 167°
2026-04-22 06:26 5.47371 9.32227 36872 ft 485 kts 167°
2026-04-22 06:27 5.40787 9.33722 36879 ft 485 kts 167°
2026-04-22 06:27 5.34238 9.35207 36881 ft 485 kts 167°
2026-04-22 06:28 5.27652 9.36701 36884 ft 485 kts 167°
2026-04-22 06:28 5.21060 9.38196 36891 ft 485 kts 167°
2026-04-22 06:29 5.14474 9.39690 36896 ft 485 kts 167°
2026-04-22 06:29 5.07893 9.41181 36896 ft 485 kts 167°
2026-04-22 06:30 5.01300 9.42676 36899 ft 485 kts 167°
2026-04-22 06:30 4.94751 9.44160 36896 ft 484 kts 167°
2026-04-22 06:31 4.88171 9.45651 36902 ft 485 kts 167°
2026-04-22 06:31 4.81581 9.47143 36890 ft 485 kts 167°
2026-04-22 06:32 4.74989 9.48636 36887 ft 485 kts 167°
2026-04-22 06:32 4.68408 9.50126 36884 ft 485 kts 167°
2026-04-22 06:33 4.61816 9.51619 36873 ft 485 kts 167°
2026-04-22 06:33 4.55281 9.53098 36872 ft 485 kts 167°
2026-04-22 06:34 4.48696 9.54588 36868 ft 485 kts 167°
2026-04-22 06:34 4.42108 9.56078 36862 ft 485 kts 167°
2026-04-22 06:35 4.35521 9.57568 36862 ft 485 kts 167°
2026-04-22 06:35 4.28919 9.59062 36853 ft 485 kts 167°
2026-04-22 06:36 4.22369 9.60543 36845 ft 485 kts 167°
2026-04-22 06:36 4.15779 9.62033 36838 ft 485 kts 167°
2026-04-22 06:37 4.09190 9.63523 36834 ft 485 kts 167°
2026-04-22 06:37 4.02606 9.65011 36829 ft 485 kts 167°
2026-04-22 06:38 3.96020 9.66506 36829 ft 485 kts 166°
2026-04-22 06:38 3.89451 9.68092 36834 ft 485 kts 166°
2026-04-22 06:39 3.82900 9.69712 36834 ft 485 kts 166°
2026-04-22 06:39 3.76372 9.71319 36840 ft 485 kts 166°
2026-04-22 06:40 3.69814 9.72922 36833 ft 485 kts 166°
2026-04-22 06:40 3.63264 9.74519 36834 ft 485 kts 166°
2026-04-22 06:41 3.56703 9.76118 36834 ft 484 kts 166°
2026-04-22 06:41 3.50148 9.77716 36833 ft 484 kts 166°
2026-04-22 06:42 3.43599 9.79313 36830 ft 484 kts 166°
2026-04-22 06:42 3.37057 9.80908 36833 ft 483 kts 166°
2026-04-22 06:43 3.30565 9.82491 36834 ft 483 kts 166°
2026-04-22 06:43 3.24021 9.84086 36838 ft 483 kts 166°
2026-04-22 06:44 3.17485 9.85678 36834 ft 483 kts 166°
2026-04-22 06:44 3.10952 9.87270 36838 ft 483 kts 166°
2026-04-22 06:45 3.04419 9.88862 36840 ft 482 kts 166°
2026-04-22 06:45 2.97894 9.90451 36840 ft 482 kts 166°
2026-04-22 06:46 2.91417 9.92029 36840 ft 482 kts 166°
2026-04-22 06:46 2.84883 9.93620 36842 ft 482 kts 166°
2026-04-22 06:47 2.78353 9.95211 36846 ft 482 kts 166°
2026-04-22 06:47 2.71873 9.96788 36850 ft 482 kts 166°
2026-04-22 06:48 2.65351 9.98376 36847 ft 482 kts 166°
2026-04-22 06:48 2.58835 9.99963 36850 ft 482 kts 166°
2026-04-22 06:49 2.52311 10.01550 36852 ft 482 kts 166°
2026-04-22 06:49 2.45799 10.03135 36850 ft 481 kts 166°
2026-04-22 06:50 2.39282 10.04721 36853 ft 482 kts 166°
2026-04-22 06:50 2.32754 10.06310 36857 ft 483 kts 166°
2026-04-22 06:51 2.26257 10.07891 36861 ft 484 kts 166°
2026-04-22 06:51 2.19717 10.09482 36863 ft 484 kts 166°
2026-04-22 06:52 2.14256 10.10811 36862 ft 485 kts 166°
2026-04-22 06:52 2.07708 10.12403 36866 ft 485 kts 166°
2026-04-22 06:53 2.01147 10.14000 36865 ft 486 kts 166°
2026-04-22 06:53 1.94568 10.15600 36873 ft 487 kts 166°
2026-04-22 06:54 1.87964 10.17206 36871 ft 488 kts 166°
2026-04-22 06:54 1.81357 10.18814 36880 ft 489 kts 166°
2026-04-22 06:55 1.74747 10.20420 36882 ft 489 kts 166°
2026-04-22 06:55 1.68158 10.22018 36888 ft 490 kts 166°
2026-04-22 06:56 1.61518 10.23629 36889 ft 490 kts 166°
2026-04-22 06:56 1.54878 10.25240 36895 ft 490 kts 166°
2026-04-22 06:57 1.48243 10.26851 36890 ft 490 kts 166°
2026-04-22 06:57 1.41614 10.28459 36902 ft 490 kts 166°
2026-04-22 06:58 1.34991 10.30067 36899 ft 490 kts 166°
2026-04-22 06:58 1.28402 10.31666 36901 ft 490 kts 166°
2026-04-22 06:59 1.21781 10.33272 36901 ft 489 kts 166°
2026-04-22 06:59 1.15151 10.34881 36903 ft 489 kts 166°
2026-04-22 07:00 1.08542 10.36485 36903 ft 488 kts 166°
2026-04-22 07:00 1.01939 10.38087 36907 ft 487 kts 166°
2026-04-22 07:01 0.95346 10.39686 36906 ft 487 kts 166°
2026-04-22 07:01 0.88808 10.41273 36905 ft 486 kts 166°
2026-04-22 07:02 0.82239 10.42868 36902 ft 485 kts 166°
2026-04-22 07:02 0.75674 10.44468 36901 ft 485 kts 166°
2026-04-22 07:03 0.69112 10.46068 36903 ft 485 kts 166°
2026-04-22 07:03 0.62548 10.47667 36901 ft 485 kts 166°
2026-04-22 07:04 0.55985 10.49266 36900 ft 485 kts 166°
2026-04-22 07:04 0.49460 10.50856 36903 ft 486 kts 166°
2026-04-22 07:05 0.42890 10.52456 36894 ft 486 kts 166°
2026-04-22 07:05 0.36313 10.54056 36897 ft 486 kts 166°
2026-04-22 07:06 0.29727 10.55660 36898 ft 487 kts 166°
2026-04-22 07:06 0.23143 10.57263 36896 ft 487 kts 166°
2026-04-22 07:07 0.16553 10.58868 36892 ft 487 kts 166°
2026-04-22 07:07 0.09973 10.60471 36893 ft 487 kts 166°
2026-04-22 07:08 0.03386 10.62075 36887 ft 487 kts 166°
2026-04-22 07:08 -0.03199 10.63679 36905 ft 487 kts 166°
2026-04-22 07:09 -0.09752 10.65272 36900 ft 488 kts 166°
2026-04-22 07:09 -0.16360 10.66871 36900 ft 488 kts 166°
2026-04-22 07:10 -0.22964 10.68470 36902 ft 489 kts 166°
2026-04-22 07:10 -0.29585 10.70073 36902 ft 489 kts 166°
2026-04-22 07:11 -0.36211 10.71679 36906 ft 490 kts 166°
2026-04-22 07:11 -0.42845 10.73286 36905 ft 490 kts 166°
2026-04-22 07:12 -0.49470 10.74892 36903 ft 490 kts 166°
2026-04-22 07:12 -0.56058 10.76488 36904 ft 490 kts 166°
2026-04-22 07:13 -0.62688 10.78094 36913 ft 490 kts 166°
2026-04-22 07:13 -0.69312 10.79700 36916 ft 490 kts 166°
2026-04-22 07:14 -0.75944 10.81307 36911 ft 490 kts 166°
2026-04-22 07:14 -0.82566 10.82913 36912 ft 489 kts 166°
2026-04-22 07:15 -0.89182 10.84519 36914 ft 489 kts 166°
2026-04-22 07:15 -0.95805 10.86126 36914 ft 489 kts 166°
2026-04-22 07:16 -1.02425 10.87734 36912 ft 489 kts 166°
2026-04-22 07:16 -1.08998 10.89329 36915 ft 488 kts 166°
2026-04-22 07:17 -1.15606 10.90934 36918 ft 488 kts 166°
2026-04-22 07:17 -1.22213 10.92538 36921 ft 488 kts 166°
2026-04-22 07:18 -1.28808 10.94139 36926 ft 487 kts 166°
2026-04-22 07:18 -1.35401 10.95740 36927 ft 488 kts 165°
2026-04-22 07:19 -1.42000 10.97342 36916 ft 488 kts 165°
2026-04-22 07:19 -1.48599 10.98944 36927 ft 488 kts 165°
2026-04-22 07:20 -1.55168 11.00540 36921 ft 488 kts 165°
2026-04-22 07:20 -1.61770 11.02143 36928 ft 488 kts 165°
2026-04-22 07:21 -1.68370 11.03747 36934 ft 488 kts 165°
2026-04-22 07:21 -1.74974 11.05351 36919 ft 488 kts 165°
2026-04-22 07:22 -1.81579 11.06955 36929 ft 488 kts 165°
2026-04-22 07:22 -1.88183 11.08560 36921 ft 488 kts 165°
2026-04-22 07:23 -1.94779 11.10162 36917 ft 488 kts 165°
2026-04-22 07:23 -2.01344 11.11757 36930 ft 488 kts 165°
2026-04-22 07:24 -2.07951 11.13363 36920 ft 488 kts 165°
2026-04-22 07:24 -2.14544 11.14965 36927 ft 487 kts 165°
2026-04-22 07:25 -2.21129 11.16566 36923 ft 488 kts 165°
2026-04-22 07:25 -2.27736 11.18172 36925 ft 488 kts 165°
2026-04-22 07:26 -2.34303 11.19768 36925 ft 488 kts 165°
2026-04-22 07:26 -2.40912 11.21375 36930 ft 488 kts 165°
2026-04-22 07:27 -2.47522 11.22983 36922 ft 488 kts 165°
2026-04-22 07:27 -2.54119 11.24587 36927 ft 488 kts 165°
2026-04-22 07:28 -2.64147 11.26523 36933 ft 490 kts 171°
2026-04-22 07:28 -2.70907 11.27441 36928 ft 490 kts 171°
2026-04-22 07:29 -2.77669 11.28364 36930 ft 491 kts 171°
2026-04-22 07:29 -2.84385 11.29309 36929 ft 491 kts 171°
2026-04-22 07:30 -2.91162 11.30275 36928 ft 491 kts 171°
2026-04-22 07:30 -2.97921 11.31240 36925 ft 491 kts 171°
2026-04-22 07:31 -3.04703 11.32207 36924 ft 491 kts 171°
2026-04-22 07:31 -3.11479 11.33173 36928 ft 492 kts 171°
2026-04-22 07:32 -3.18248 11.34137 36923 ft 492 kts 171°
2026-04-22 07:32 -3.25003 11.35099 36927 ft 492 kts 171°
2026-04-22 07:33 -3.31780 11.36065 36920 ft 492 kts 171°
2026-04-22 07:33 -3.38556 11.37031 36922 ft 492 kts 171°
2026-04-22 07:34 -3.45338 11.37997 36915 ft 492 kts 171°
2026-04-22 07:34 -3.52130 11.38965 36913 ft 493 kts 171°
2026-04-22 07:35 -3.58924 11.39934 36917 ft 493 kts 171°
2026-04-22 07:35 -3.65676 11.40897 36911 ft 493 kts 171°
2026-04-22 07:36 -3.72467 11.41866 36910 ft 493 kts 171°
2026-04-22 07:36 -3.79262 11.42835 36903 ft 493 kts 171°
2026-04-22 07:37 -3.86057 11.43804 36896 ft 493 kts 171°
2026-04-22 07:37 -3.92849 11.44774 36902 ft 493 kts 171°
2026-04-22 07:38 -3.99657 11.45745 36894 ft 494 kts 171°
2026-04-22 07:38 -4.06468 11.46717 36888 ft 495 kts 171°
2026-04-22 07:39 -4.13301 11.47693 36890 ft 496 kts 171°
2026-04-22 07:39 -4.20130 11.48668 36877 ft 494 kts 171°
2026-04-22 07:40 -4.26893 11.49634 36879 ft 495 kts 171°
2026-04-22 07:40 -4.33710 11.50608 36882 ft 496 kts 171°
2026-04-22 07:41 -4.40552 11.51585 36879 ft 496 kts 171°
2026-04-22 07:41 -4.47399 11.52564 36880 ft 496 kts 171°
2026-04-22 07:42 -4.53085 11.53376 36881 ft 497 kts 171°
2026-04-22 07:42 -4.59944 11.54357 36876 ft 497 kts 171°
2026-04-22 07:43 -4.66803 11.55337 36874 ft 497 kts 171°
2026-04-22 07:43 -4.73657 11.56318 36874 ft 497 kts 171°
2026-04-22 07:44 -4.80508 11.57298 36876 ft 497 kts 171°
2026-04-22 07:44 -4.87322 11.58272 36882 ft 498 kts 170°
2026-04-22 07:45 -4.94180 11.59254 36883 ft 498 kts 170°
2026-04-22 07:45 -5.01047 11.60237 36886 ft 498 kts 170°
2026-04-22 07:46 -5.07920 11.61221 36883 ft 498 kts 170°
2026-04-22 07:46 -5.14717 11.62463 36885 ft 496 kts 163°
2026-04-22 07:47 -5.21193 11.64796 36890 ft 494 kts 156°
2026-04-22 07:47 -5.27499 11.67453 36887 ft 495 kts 155°
2026-04-22 07:48 -5.33853 11.70119 36897 ft 495 kts 156°
2026-04-22 07:48 -5.40216 11.72753 36882 ft 495 kts 156°
2026-04-22 07:49 -5.46578 11.75373 36889 ft 494 kts 156°
2026-04-22 07:49 -5.52940 11.77991 36888 ft 493 kts 156°
2026-04-22 07:50 -5.59288 11.80605 36893 ft 493 kts 156°
2026-04-22 07:50 -5.65632 11.83221 36900 ft 492 kts 156°
2026-04-22 07:51 -5.71972 11.85835 36886 ft 491 kts 156°
2026-04-22 07:51 -5.78255 11.88427 36893 ft 491 kts 156°
2026-04-22 07:52 -5.84569 11.91032 36902 ft 491 kts 156°
2026-04-22 07:52 -5.90873 11.93633 36893 ft 490 kts 156°
2026-04-22 07:53 -5.97184 11.96238 36897 ft 489 kts 156°
2026-04-22 07:53 -6.03475 11.98835 36899 ft 489 kts 156°
2026-04-22 07:54 -6.09728 12.01417 36899 ft 488 kts 156°
2026-04-22 07:54 -6.16013 12.04014 36895 ft 488 kts 155°
2026-04-22 07:55 -6.22292 12.06608 36900 ft 487 kts 155°
2026-04-22 07:55 -6.28567 12.09201 36894 ft 487 kts 155°
2026-04-22 07:56 -6.34812 12.11783 36894 ft 488 kts 155°
2026-04-22 07:56 -6.41100 12.14383 36897 ft 488 kts 155°
2026-04-22 07:57 -6.47386 12.16983 36899 ft 488 kts 155°
2026-04-22 07:57 -6.53676 12.19586 36895 ft 489 kts 155°
2026-04-22 07:58 -6.59964 12.22188 36899 ft 489 kts 155°
2026-04-22 07:58 -6.66227 12.24781 36903 ft 489 kts 155°
2026-04-22 07:59 -6.72523 12.27388 36900 ft 489 kts 155°
2026-04-22 07:59 -6.78829 12.30000 36902 ft 489 kts 155°
2026-04-22 08:00 -6.85125 12.32608 36901 ft 490 kts 155°
2026-04-22 08:00 -6.91428 12.35221 36905 ft 490 kts 155°
2026-04-22 08:01 -6.97727 12.37833 36903 ft 490 kts 155°
2026-04-22 08:01 -7.04002 12.40522 36902 ft 489 kts 153°
2026-04-22 08:02 -7.10069 12.43521 36903 ft 489 kts 151°
2026-04-22 08:02 -7.16145 12.46597 36905 ft 488 kts 152°
2026-04-22 08:03 -7.22228 12.49657 36904 ft 488 kts 152°
2026-04-22 08:03 -7.28307 12.52694 36905 ft 488 kts 152°
2026-04-22 08:04 -7.34386 12.55726 36906 ft 487 kts 152°
2026-04-22 08:04 -7.40458 12.58755 36908 ft 487 kts 152°
2026-04-22 08:05 -7.46532 12.61788 36908 ft 487 kts 152°
2026-04-22 08:05 -7.52595 12.64816 36907 ft 487 kts 152°
2026-04-22 08:06 -7.58636 12.67834 36909 ft 487 kts 152°
2026-04-22 08:06 -7.64704 12.70867 36906 ft 487 kts 152°
2026-04-22 08:07 -7.70776 12.73903 36911 ft 487 kts 152°
2026-04-22 08:07 -7.76856 12.76944 36906 ft 487 kts 152°
2026-04-22 08:08 -7.82889 12.79962 36906 ft 487 kts 152°
2026-04-22 08:08 -7.88972 12.83006 36909 ft 487 kts 152°
2026-04-22 08:09 -7.95053 12.86051 36909 ft 487 kts 152°
2026-04-22 08:09 -8.01125 12.89092 36907 ft 487 kts 152°
2026-04-22 08:10 -8.07211 12.92141 36913 ft 487 kts 152°
2026-04-22 08:10 -8.13283 12.95183 36909 ft 487 kts 152°
2026-04-22 08:11 -8.19351 12.98225 36909 ft 487 kts 152°
2026-04-22 08:11 -8.25389 13.01253 36912 ft 487 kts 152°
2026-04-22 08:12 -8.31502 13.04320 36907 ft 488 kts 152°
2026-04-22 08:12 -8.37535 13.07347 36909 ft 487 kts 152°
2026-04-22 08:13 -8.43594 13.10389 36902 ft 476 kts 152°
2026-04-22 08:13 -8.46512 13.11853 36890 ft 460 kts 152°
2026-04-22 08:13 -8.49329 13.13267 36887 ft 445 kts 152°
2026-04-22 08:14 -8.52058 13.14638 36890 ft 430 kts 152°
2026-04-22 08:14 -8.54695 13.15964 36886 ft 416 kts 152°
2026-04-22 08:14 -8.57238 13.17242 36881 ft 403 kts 152°
2026-04-22 08:14 -8.59731 13.18495 36887 ft 397 kts 152°
2026-04-22 08:15 -8.64690 13.20990 36898 ft 400 kts 152°
2026-04-22 08:15 -8.69697 13.23511 36899 ft 403 kts 152°
2026-04-22 08:16 -8.74693 13.26028 36887 ft 403 kts 152°
2026-04-22 08:16 -8.79708 13.28553 36882 ft 401 kts 152°
2026-04-22 08:17 -8.84714 13.31075 36886 ft 402 kts 152°
2026-04-22 08:17 -8.89719 13.33596 36888 ft 402 kts 152°
2026-04-22 08:18 -8.94730 13.36122 36891 ft 402 kts 152°
2026-04-22 08:18 -8.99710 13.38631 36899 ft 402 kts 152°
2026-04-22 08:19 -9.04708 13.41151 36907 ft 402 kts 152°
2026-04-22 08:19 -9.09731 13.43683 36925 ft 403 kts 153°
2026-04-22 08:20 -9.14758 13.46218 36928 ft 403 kts 153°
2026-04-22 08:20 -9.19773 13.48747 36914 ft 401 kts 153°
2026-04-22 08:21 -9.24751 13.51258 36912 ft 399 kts 153°
2026-04-22 08:21 -9.29722 13.53765 36924 ft 400 kts 153°
2026-04-22 08:22 -9.34708 13.56280 36924 ft 400 kts 153°
2026-04-22 08:22 -9.39671 13.58784 36926 ft 401 kts 153°
2026-04-22 08:23 -9.44671 13.61306 36920 ft 401 kts 153°
2026-04-22 08:23 -9.49662 13.63825 36921 ft 400 kts 153°
2026-04-22 08:24 -9.54658 13.66346 36922 ft 401 kts 153°
2026-04-22 08:24 -9.59656 13.68869 36930 ft 402 kts 153°
2026-04-22 08:25 -9.64635 13.71382 36926 ft 402 kts 153°
2026-04-22 08:25 -9.69642 13.73910 36921 ft 401 kts 153°
2026-04-22 08:26 -9.74635 13.76431 36921 ft 400 kts 153°
2026-04-22 08:26 -9.79602 13.78939 36752 ft 396 kts 153°
2026-04-22 08:27 -9.82050 13.80229 36294 ft 392 kts 145°
2026-04-22 08:27 -9.83974 13.82083 35614 ft 388 kts 122°
2026-04-22 08:27 -9.85107 13.84549 34979 ft 385 kts 104°
2026-04-22 08:27 -9.85478 13.87219 34379 ft 382 kts 89°
2026-04-22 08:28 -9.85141 13.89876 33778 ft 380 kts 74°
2026-04-22 08:28 -9.84089 13.92317 33092 ft 378 kts 57°
2026-04-22 08:28 -9.82349 13.94299 32426 ft 377 kts 37°
2026-04-22 08:28 -9.80049 13.95563 31753 ft 376 kts 17°
2026-04-22 08:29 -9.77485 13.95970 31106 ft 374 kts 358°
2026-04-22 08:29 -9.74928 13.95593 30496 ft 370 kts 339°
2026-04-22 08:29 -9.72595 13.94524 29924 ft 366 kts 331°
2026-04-22 08:29 -9.70360 13.93308 29353 ft 362 kts 330°
2026-04-22 08:30 -9.68205 13.92097 28860 ft 356 kts 330°
2026-04-22 08:30 -9.66055 13.90886 28374 ft 350 kts 330°
2026-04-22 08:30 -9.63937 13.89703 27909 ft 345 kts 331°
2026-04-22 08:30 -9.61845 13.88545 27427 ft 341 kts 331°
2026-04-22 08:31 -9.59774 13.87408 26965 ft 336 kts 332°
2026-04-22 08:31 -9.57727 13.86290 26534 ft 331 kts 332°
2026-04-22 08:31 -9.53720 13.84111 25663 ft 323 kts 333°
2026-04-22 08:32 -9.51752 13.83043 25263 ft 319 kts 333°
2026-04-22 08:32 -9.49811 13.81990 24864 ft 314 kts 333°
2026-04-22 08:32 -9.47905 13.80957 24357 ft 308 kts 333°
2026-04-22 08:32 -9.46661 13.80283 23974 ft 305 kts 333°
2026-04-22 08:33 -9.44171 13.78934 23089 ft 301 kts 334°
2026-04-22 08:33 -9.42950 13.78273 22609 ft 299 kts 334°
2026-04-22 08:33 -9.41120 13.77282 21922 ft 296 kts 334°
2026-04-22 08:33 -9.39309 13.76301 21256 ft 293 kts 334°
2026-04-22 08:34 -9.37520 13.75333 20604 ft 290 kts 334°
2026-04-22 08:34 -9.35749 13.74374 19983 ft 287 kts 334°
2026-04-22 08:34 -9.33999 13.73427 19368 ft 283 kts 334°
2026-04-22 08:34 -9.32266 13.72489 18739 ft 281 kts 334°
2026-04-22 08:35 -9.30545 13.71558 18122 ft 279 kts 334°
2026-04-22 08:35 -9.28845 13.70638 17456 ft 276 kts 334°
2026-04-22 08:35 -9.27182 13.69738 16803 ft 272 kts 334°
2026-04-22 08:35 -9.25519 13.68839 16182 ft 269 kts 334°
2026-04-22 08:36 -9.23878 13.67951 15568 ft 266 kts 334°
2026-04-22 08:36 -9.22255 13.67073 14972 ft 263 kts 334°
2026-04-22 08:36 -9.20648 13.66204 14394 ft 260 kts 334°
2026-04-22 08:36 -9.19057 13.65344 13808 ft 258 kts 334°
2026-04-22 08:37 -9.17481 13.64492 13176 ft 255 kts 334°
2026-04-22 08:37 -9.15923 13.63650 12556 ft 253 kts 334°
2026-04-22 08:37 -9.14381 13.62816 11968 ft 250 kts 334°
2026-04-22 08:37 -9.12851 13.61989 11366 ft 248 kts 334°
2026-04-22 08:38 -9.11385 13.61194 11234 ft 230 kts 334°
2026-04-22 08:38 -9.09927 13.60408 11181 ft 243 kts 334°
2026-04-22 08:38 -9.08409 13.59589 10863 ft 248 kts 334°
2026-04-22 08:38 -9.06908 13.58779 10605 ft 247 kts 334°
2026-04-22 08:39 -9.05393 13.57960 10331 ft 246 kts 334°
2026-04-22 08:39 -9.03889 13.57147 10057 ft 244 kts 334°
2026-04-22 08:39 -9.02393 13.56339 9776 ft 243 kts 334°
2026-04-22 08:39 -9.00902 13.55533 9478 ft 242 kts 334°
2026-04-22 08:40 -8.99419 13.54732 9190 ft 241 kts 334°
2026-04-22 08:40 -8.97940 13.53933 8914 ft 241 kts 334°
2026-04-22 08:40 -8.96464 13.53136 8638 ft 240 kts 334°
2026-04-22 08:40 -8.94994 13.52342 8368 ft 239 kts 334°
2026-04-22 08:41 -8.93528 13.51551 8168 ft 239 kts 335°
2026-04-22 08:41 -8.92055 13.50757 7841 ft 244 kts 335°
2026-04-22 08:41 -8.90558 13.49949 7557 ft 242 kts 335°
2026-04-22 08:41 -8.89080 13.49151 7285 ft 240 kts 335°
2026-04-22 08:42 -8.87610 13.48357 7012 ft 239 kts 335°
2026-04-22 08:42 -8.86148 13.47567 6725 ft 237 kts 335°
2026-04-22 08:42 -8.84698 13.46785 6463 ft 236 kts 335°
2026-04-22 08:42 -8.83255 13.46005 6197 ft 235 kts 335°
2026-04-22 08:43 -8.81815 13.45229 5918 ft 234 kts 335°
2026-04-22 08:43 -8.80386 13.44458 5640 ft 233 kts 335°
2026-04-22 08:43 -8.78958 13.43687 5370 ft 231 kts 334°
2026-04-22 08:43 -8.77545 13.42925 5119 ft 230 kts 334°
2026-04-22 08:44 -8.76154 13.42174 4859 ft 224 kts 335°
2026-04-22 08:44 -8.74807 13.41448 4607 ft 219 kts 335°
2026-04-22 08:44 -8.73485 13.40724 4325 ft 212 kts 329°
2026-04-22 08:44 -8.72557 13.39636 4100 ft 203 kts 291°
2026-04-22 08:45 -8.72496 13.38248 3813 ft 198 kts 250°
2026-04-22 08:45 -8.73186 13.37111 3604 ft 186 kts 231°
2026-04-22 08:45 -8.73999 13.36124 3356 ft 178 kts 226°
2026-04-22 08:45 -8.74822 13.35211 3142 ft 174 kts 225°
2026-04-22 08:46 -8.75645 13.34318 2930 ft 172 kts 225°
2026-04-22 08:46 -8.76452 13.33449 2695 ft 167 kts 224°
2026-04-22 08:46 -8.77238 13.32605 2498 ft 167 kts 224°
2026-04-22 08:46 -8.78027 13.31756 2281 ft 164 kts 224°
2026-04-22 08:47 -8.78807 13.30918 2069 ft 164 kts 224°
2026-04-22 08:47 -8.79585 13.30080 1855 ft 162 kts 223°
2026-04-22 08:47 -8.80342 13.29266 1668 ft 157 kts 225°
2026-04-22 08:47 -8.81083 13.28468 1457 ft 154 kts 224°
2026-04-22 08:48 -8.81794 13.27705 1241 ft 145 kts 224°
2026-04-22 08:48 -8.82464 13.26983 1094 ft 139 kts 223°
2026-04-22 08:48 -8.83140 13.26257 916 ft 142 kts 224°
2026-04-22 08:48 -8.83830 13.25519 747 ft 145 kts 224°
2026-04-22 08:49 -8.84517 13.24783 518 ft 146 kts 225°
2026-04-22 08:49 -8.85203 13.24040 373 ft 147 kts 226°
2026-04-22 08:49 -8.85894 13.23300 270 ft 142 kts 226°
2026-04-22 08:49 -8.86505 13.22647 265 ft 103 kts 227°
2026-04-22 08:50 -8.86869 13.22259 263 ft 50 kts 226°
2026-04-22 08:50 -8.87030 13.22085 262 ft 30 kts 227°
2026-04-22 08:50 -8.87174 13.21932 262 ft 30 kts 226°
2026-04-22 08:50 -8.87317 13.21779 264 ft 30 kts 226°
2026-04-22 08:51 -8.87462 13.21627 265 ft 30 kts 224°
2026-04-22 08:51 -8.87591 13.21486 263 ft 22 kts 226°
2026-04-22 08:51 -8.87648 13.21382 263 ft 16 kts 285°
2026-04-22 08:51 -8.87574 13.21362 263 ft 12 kts 33°
2026-04-22 08:52 -8.87521 13.21426 263 ft 12 kts 70°
2026-04-22 08:52 -8.87516 13.21510 264 ft 12 kts 87°
2026-04-22 08:52 -8.87488 13.21588 265 ft 12 kts 56°
2026-04-22 08:52 -8.87435 13.21652 264 ft 12 kts 48°
2026-04-22 08:53 -8.87379 13.21714 264 ft 12 kts 46°
2026-04-22 08:53 -8.87321 13.21775 264 ft 12 kts 46°
2026-04-22 08:53 -8.87264 13.21837 264 ft 12 kts 47°
2026-04-22 08:53 -8.87206 13.21899 263 ft 13 kts 47°
2026-04-22 08:54 -8.87142 13.21968 262 ft 14 kts 47°
2026-04-22 08:54 -8.87073 13.22042 262 ft 15 kts 46°
2026-04-22 08:54 -8.87003 13.22116 263 ft 15 kts 46°
2026-04-22 08:54 -8.86933 13.22190 262 ft 15 kts 47°
2026-04-22 08:55 -8.86864 13.22264 263 ft 15 kts 46°
2026-04-22 08:55 -8.86794 13.22338 264 ft 15 kts 46°
2026-04-22 08:55 -8.86725 13.22412 264 ft 15 kts 46°
2026-04-22 08:55 -8.86656 13.22486 264 ft 15 kts 46°
2026-04-22 08:56 -8.86587 13.22560 265 ft 15 kts 47°
2026-04-22 08:56 -8.86519 13.22635 265 ft 15 kts 48°
2026-04-22 08:56 -8.86448 13.22708 264 ft 15 kts 46°
2026-04-22 08:56 -8.86378 13.22782 263 ft 15 kts 47°
2026-04-22 08:57 -8.86309 13.22857 263 ft 15 kts 46°
2026-04-22 08:57 -8.86240 13.22931 263 ft 15 kts 46°
2026-04-22 08:57 -8.86171 13.23005 262 ft 15 kts 46°
2026-04-22 08:57 -8.86101 13.23079 263 ft 14 kts 46°
2026-04-22 08:58 -8.86032 13.23152 263 ft 14 kts 46°
2026-04-22 08:58 -8.85963 13.23227 263 ft 14 kts 47°
2026-04-22 08:58 -8.85894 13.23301 264 ft 14 kts 46°
2026-04-22 08:58 -8.85824 13.23375 265 ft 14 kts 46°
2026-04-22 08:59 -8.85755 13.23449 265 ft 14 kts 47°
2026-04-22 08:59 -8.85686 13.23523 265 ft 14 kts 46°
2026-04-22 08:59 -8.85617 13.23597 265 ft 14 kts 46°
2026-04-22 08:59 -8.85547 13.23671 265 ft 14 kts 46°
2026-04-22 09:00 -8.85478 13.23745 263 ft 14 kts 47°
2026-04-22 09:00 -8.85419 13.23805 264 ft 9 kts 32°
2026-04-22 09:00 -8.85365 13.23788 264 ft 9 kts 326°
2026-04-22 09:00 -8.85313 13.23743 264 ft 10 kts 317°
2026-04-22 09:01 -8.85258 13.23692 264 ft 11 kts 317°
2026-04-22 09:01 -8.85197 13.23633 263 ft 13 kts 317°
2026-04-22 09:01 -8.85134 13.23579 263 ft 9 kts 328°
2026-04-22 09:01 -8.85077 13.23554 264 ft 8 kts
2026-04-22 09:02 -8.85040 13.23594 264 ft 8 kts 63°
2026-04-22 09:02 -8.85015 13.23651 263 ft 9 kts 67°
2026-04-22 09:02 -8.84988 13.23715 263 ft 10 kts 67°
2026-04-22 09:02 -8.84959 13.23786 263 ft 11 kts 67°
2026-04-22 09:03 -8.84901 13.23796 264 ft 8 kts 313°
2026-04-22 09:03 -8.84888 13.23776 264 ft 2 kts 305°